カタログに戻る

FENGYUN 4B

運用中気象GEO
NORAD 48808·PAYLOAD·🇨🇳 China

打ち上げ Jun 2, 2021 から Xichang Satellite Launch Center

Loading…

TLE

最新Source: Space-Track

元期: Sep 14, 2026, 14:17 UTC

1 48808U 21047A   26257.59581443 -.00000337  00000-0  00000-0 0  9997
2 48808   0.3731  80.9924 0007694 276.1488 315.5100  1.00265986 19460

AllMySatでFENGYUN 4Bをリアルタイム追跡

Download on the App Store